Vorticity
nan nan nan nan nan nan nan nan nan nan nan nan nan nan nan nan nan nan nan nan nan nan nan nan nan nan nan nan nan nan nan nan nan nan nan nan nan nan nan nan nan nan nan
nan 11 8 5 6 7 5 4 5 5 4 5 5 6 5 5 6 6 6 5 5 6 6 7 5 6 7 7 8 7 6 6 6 5 6 4 4 6 6 6 5 7 nan
nan 8 9 8 7 7 5 4 4 5 5 4 4 5 5 5 5 6 6 5 6 6 6 6 6 6 6 6 6 6 6 6 7 6 4 5 5 6 5 5 6 6 nan
nan 7 9 9 9 8 5 5 3 4 5 5 5 5 5 6 6 6 6 6 5 6 6 5 6 6 6 6 6 5 5 3 2 5 5 8 8 5 5 6 5 5 nan
nan 7 10 9 8 6 5 4 4 4 5 6 6 5 6 6 6 6 6 6 5 6 6 6 5 5 4 5 3 3 2 -2 -2 6 5 5 7 8 6 6 5 5 nan
nan 8 10 7 6 6 6 4 5 5 4 6 7 6 6 5 7 6 6 5 5 6 5 6 4 5 4 3 2 3 2 2 7 6 6 6 6 7 5 5 5 4 nan
nan 6 10 9 6 6 6 6 5 5 5 6 5 6 6 6 6 6 6 5 5 5 4 4 5 4 5 5 4 4 6 13 15 7 5 6 6 5 6 5 4 5 nan
nan 8 8 9 7 6 6 6 6 5 6 6 5 6 5 7 6 6 5 5 5 5 5 4 5 4 5 6 7 5 7 13 12 9 5 6 6 8 5 4 6 5 nan
nan 6 9 10 9 9 6 6 5 5 7 6 6 6 6 7 7 6 4 4 4 4 5 4 4 4 4 5 5 5 9 10 7 7 5 5 7 5 5 10 4 5 nan
nan 7 6 7 7 6 11 9 6 6 6 7 7 5 7 7 5 4 4 6 5 3 4 4 4 4 4 5 5 6 8 8 6 5 7 6 9 4 -1 3 9 7 nan
nan 6 6 7 7 6 8 11 11 10 9 8 7 6 2 4 7 7 6 6 3 3 4 4 4 5 6 7 6 6 8 6 7 7 8 7 8 7 4 2 4 2 nan
nan 6 6 6 6 6 6 8 9 8 8 7 9 9 7 8 7 7 7 6 5 4 4 5 6 8 10 8 6 7 7 7 7 7 9 10 7 5 6 3 5 6 nan
nan 6 7 6 7 6 6 7 7 7 6 6 7 7 6 5 6 7 7 6 7 8 7 6 7 7 6 6 6 8 6 6 7 9 11 11 8 6 5 2 4 8 nan
nan 6 6 7 5 5 6 7 7 7 6 7 6 6 5 6 7 7 6 6 7 7 7 7 7 7 7 7 6 6 7 8 7 9 13 12 8 8 5 6 6 7 nan
nan 8 7 7 6 6 6 6 6 7 7 6 6 6 7 7 7 7 6 7 7 7 7 7 8 9 9 8 10 10 10 10 9 8 11 15 11 9 6 4 7 7 nan
nan 8 8 7 7 6 6 6 7 7 7 5 7 8 9 8 7 7 7 7 7 7 7 8 7 9 9 10 10 10 10 10 11 8 7 11 12 9 7 6 6 6 nan
nan 9 8 7 7 7 6 6 7 7 7 6 8 9 8 7 7 8 8 7 7 7 8 9 9 7 9 10 10 9 10 10 10 8 7 7 11 11 9 6 7 7 nan
nan 8 8 8 7 7 7 7 7 8 7 7 8 9 7 8 9 8 8 7 8 8 9 9 9 8 8 8 9 8 8 8 8 10 9 8 8 9 11 12 8 7 nan
nan 8 8 8 8 7 7 8 8 7 6 7 8 8 9 9 9 8 7 8 8 7 9 9 9 8 7 9 7 7 7 7 8 11 11 10 8 7 7 10 12 13 nan
nan 8 7 8 7 7 8 8 8 8 8 8 9 8 8 7 7 7 7 8 7 7 8 8 8 8 8 9 8 8 7 7 7 9 10 10 9 8 7 9 13 13 nan
nan 7 8 6 6 5 8 8 9 9 8 10 10 9 8 8 8 6 7 7 8 9 7 7 8 8 8 9 10 9 9 8 8 9 9 9 9 9 10 12 9 9 nan
nan 5 7 6 7 5 6 8 9 9 8 9 9 11 10 9 8 7 6 7 8 9 7 7 9 9 8 8 11 8 8 9 10 8 9 9 8 9 11 9 9 9 nan
nan 7 6 7 6 7 6 5 7 8 10 9 8 10 12 9 7 8 7 7 7 7 7 8 7 8 9 7 9 9 8 9 9 7 8 8 8 9 10 11 11 10 nan
nan 6 8 8 7 7 6 5 7 6 7 7 9 8 10 10 8 8 8 7 7 7 8 7 8 7 7 8 7 8 10 10 8 8 8 8 9 8 10 14 13 10 nan
nan 9 7 8 7 8 7 6 6 5 6 8 8 8 8 10 10 9 8 8 8 8 8 8 8 8 7 8 8 7 7 8 9 9 7 8 9 7 7 10 13 12 nan
nan nan nan nan nan nan nan nan nan nan nan nan nan nan nan nan nan nan nan nan nan nan nan nan nan nan nan nan nan nan nan nan nan nan nan nan nan nan nan nan nan nan nan
CAPE
226 833 2457 2058 1972 1779 1587 1595 1637 1905 1864 1910 2297 1736 1611 1754 1825 1829 1849 1795 1736 1752 1994 2009 1855 1407 1233 1633 1810 1614 1292 1961 1826 2081 2566 2770 2755 2930 2845 2803 2784 2418 2608
502 1235 2804 2205 1924 1920 1791 1811 1771 1938 1927 1810 2041 1740 1688 1801 1903 1995 1899 1915 1883 1609 2015 1880 1947 1338 1387 1456 1608 1861 1936 1751 2046 2435 2631 2878 2990 2887 2976 2926 2815 2648 2805
920 1529 2292 2144 2144 2314 1970 1917 1971 1902 2029 2160 1980 1929 1809 1697 1970 1841 1874 1950 1864 1857 1886 1938 1997 1715 1551 1528 1526 1673 1817 1674 1752 2081 2291 2118 2459 2480 2380 2647 2931 2929 2825
1127 1399 1621 2589 2341 2516 2092 1990 2063 1710 1683 1809 1873 1741 1623 1771 1991 1871 1783 1926 1885 1905 1805 1899 1484 1111 1405 1243 1278 1356 1612 2038 2194 2315 2050 2121 2625 2819 2674 2343 2289 2364 2245
1082 1214 1491 2167 2321 2329 2191 2055 2017 1502 1534 1868 1937 1687 2007 2075 1797 1662 1737 1828 1880 1910 1907 1722 1469 1262 1482 1292 1456 1725 1974 2060 1997 1789 1546 1769 2349 2697 2635 2646 2597 2518 2419
953 1184 2075 2129 2252 2323 2105 1983 1722 1691 1327 1731 1995 1671 1928 1949 1663 1716 2013 1753 2039 1647 1397 1161 1104 1116 970 1041 935 935 1040 1425 1817 1309 1341 2018 2165 2508 2582 2556 2311 2277 2171
829 852 1597 2282 1921 1965 2051 1999 1891 1122 1488 2067 1946 1850 1977 1741 1854 1897 1843 1237 1158 992 1139 1170 1059 1091 999 1089 1262 1432 1795 2568 1304 1245 1173 1849 1814 2607 2441 2251 2332 2064 2218
737 1074 1283 2006 2020 2125 2029 1801 1785 1054 1713 1791 2041 2038 1623 1737 2051 1826 1680 1538 1468 1290 1247 1314 1304 1396 1348 1270 1113 1410 2386 1899 917 1211 1320 1529 1622 2593 2428 2260 2287 2181 2096
746 803 638 1306 1568 1787 1793 1345 1081 1354 1803 2108 2111 2024 1754 2128 2129 1775 1719 1528 1419 1528 1310 1300 1336 1375 1493 1594 1846 2148 2043 1528 712 1118 1006 1220 1791 1858 1336 1480 1426 1460 1561
419 316 369 339 372 640 1111 1632 1377 1475 2095 1949 2101 1982 1951 1870 1811 1967 2032 1428 1528 1338 1325 1412 1472 1455 1467 1491 1663 1697 1937 2556 226 369 819 978 2025 2279 871 764 1912 2193 1849
177 90 113 334 391 438 503 1219 1498 1594 2034 2063 1952 1806 1730 1479 1413 1609 1621 1450 1349 1399 1454 1583 1719 1839 2057 2096 1801 1713 1694 1453 1623 857 851 695 1700 2271 1897 1261 1080 1740 977
75 23 9 94 205 281 1080 274 436 290 179 392 276 291 583 769 868 1138 1427 1512 1442 1476 1706 1958 2055 2161 1999 1358 1112 1267 822 596 978 1505 914 1203 1322 1860 1699 1750 1532 1631 1518
29 51 14 0 39 128 293 270 83 55 117 277 495 453 263 168 179 702 696 740 684 1239 991 905 699 478 470 528 875 1006 778 516 411 816 887 1075 1631 2033 1302 799 1864 1811 1683
9 36 22 0 0 30 73 195 128 46 83 118 164 251 213 99 85 390 334 323 291 285 261 181 156 234 224 281 222 351 309 293 450 549 575 1184 1683 1892 1759 1834 1304 1992 1783
1 8 2 1 0 1 20 58 86 22 36 45 97 100 184 154 103 79 110 12 37 85 151 205 289 361 413 385 418 340 206 143 230 312 138 830 1984 2118 1654 2234 2846 2287 2180
0 0 0 0 0 0 0 0 2 0 0 0 51 160 103 54 0 0 0 0 36 122 261 389 243 669 439 493 702 564 49 97 174 94 74 204 1872 2245 1905 2245 2321 2875 2644
0 0 0 0 0 0 0 0 0 0 0 0 4 87 112 0 0 0 7 21 128 228 265 77 305 324 275 18 80 22 59 98 64 54 19 11 280 2254 1988 1835 2393 2765 2667
0 0 0 0 0 0 0 0 0 0 0 0 9 65 76 120 170 139 121 122 199 0 43 18 227 447 142 0 0 75 63 26 12 19 0 0 11 111 1220 2103 2375 2599 1626
0 0 0 0 0 0 0 0 0 0 0 26 61 57 69 72 271 128 0 0 0 539 113 0 145 208 879 194 34 0 0 22 36 61 67 16 11 130 77 60 604 1057 875
0 0 0 0 0 0 0 14 19 11 33 103 238 144 48 0 178 0 0 0 0 569 150 0 0 399 788 119 10 61 3 0 0 1 120 237 300 128 218 244 333 504 1199
0 0 0 0 0 0 0 10 29 50 111 125 77 105 109 36 28 51 161 206 348 759 475 43 471 568 469 357 75 99 8 0 5 0 0 12 22 76 152 347 436 865 1000
0 0 0 0 0 0 0 4 33 69 64 64 68 78 105 139 96 294 275 378 206 803 518 563 414 309 400 550 306 2 61 121 58 0 65 26 129 163 180 182 461 781 865
0 0 0 0 0 0 0 0 15 16 28 79 90 93 119 131 316 579 667 270 182 612 615 632 502 710 789 626 357 233 440 289 45 88 354 139 154 149 160 181 219 567 1191
0 0 0 0 0 0 0 0 47 105 75 78 86 73 77 134 133 445 534 302 217 249 760 490 892 709 400 533 689 549 101 80 467 916 246 60 83 419 564 576 320 710 1004
0 0 0 0 0 0 0 0 6 44 36 63 111 170 103 83 122 160 345 273 503 323 562 454 775 899 562 953 946 889 344 241 3 267 250 86 411 390 725 967 176 459 940
0 0 0 0 10 0 0 0 0 19 20 74 142 181 185 113 103 168 329 246 150 578 500 457 416 688 888 1041 918 896 1041 815 713 212 252 188 207 395 305 801 1009 961 876